Satellite: MET-3/5
Catalog number: 21655
Epoch time:      06019.46488006
Element set:      16
Inclination:      082.5555 deg
RA of node:       005.8642 deg
Eccentricity:    0.0014315
Arg of perigee:   056.3919 deg
Mean anomaly:     303.8602 deg
Mean motion:   13.17003010 rev/day
Decay rate:        5.1e-07 rev/day^2
Epoch rev:           69378
Checksum:              276

Satellite: MET-2/21
Catalog number: 22782
Epoch time:      06019.35096140
Element set:     408
Inclination:      082.5475 deg
RA of node:       089.5315 deg
Eccentricity:    0.0021116
Arg of perigee:   235.1967 deg
Mean anomaly:     124.7200 deg
Mean motion:   13.83599954 rev/day
Decay rate:       1.35e-06 rev/day^2
Epoch rev:           62546
Checksum:              302

Satellite: OKEAN-4
Catalog number: 23317
Epoch time:      06018.76692176
Element set:    0843
Inclination:      082.5377 deg
RA of node:       056.3685 deg
Eccentricity:    0.0023109
Arg of perigee:   143.3370 deg
Mean anomaly:     216.9436 deg
Mean motion:   14.82298016 rev/day
Decay rate:       1.66e-06 rev/day^2
Epoch rev:           60784
Checksum:              315

Satellite: NOAA-14
Catalog number: 23455
Epoch time:      06019.09876470
Element set:     958
Inclination:      099.0614 deg
RA of node:       075.6299 deg
Eccentricity:    0.0009932
Arg of perigee:   111.2270 deg
Mean anomaly:     248.9971 deg
Mean motion:   14.13628758 rev/day
Decay rate:      -1.47e-06 rev/day^2
Epoch rev:           57000
Checksum:              327

Satellite: SICH-1
Catalog number: 23657
Epoch time:      06018.72785013
Element set:     647
Inclination:      082.5274 deg
RA of node:       197.2617 deg
Eccentricity:    0.0025021
Arg of perigee:   131.5189 deg
Mean anomaly:     228.8161 deg
Mean motion:   14.81300680 rev/day
Decay rate:       1.82e-06 rev/day^2
Epoch rev:           55986
Checksum:              301

Satellite: NOAA-15
Catalog number: 25338
Epoch time:      06019.05209472
Element set:     362
Inclination:      098.5139 deg
RA of node:       025.8285 deg
Eccentricity:    0.0011433
Arg of perigee:   088.7824 deg
Mean anomaly:     271.4672 deg
Mean motion:   14.24559578 rev/day
Decay rate:        2.8e-07 rev/day^2
Epoch rev:           39948
Checksum:              330

Satellite: RESURS
Catalog number: 25394
Epoch time:      06019.82525160
Element set:     281
Inclination:      098.5170 deg
RA of node:       087.5885 deg
Eccentricity:    0.0000737
Arg of perigee:   235.6983 deg
Mean anomaly:     124.4125 deg
Mean motion:   14.24094397 rev/day
Decay rate:       -3.4e-07 rev/day^2
Epoch rev:           39128
Checksum:              306

Satellite: FENGYUN1
Catalog number: 25730
Epoch time:      06019.57652805
Element set:     630
Inclination:      098.6167 deg
RA of node:       017.8099 deg
Eccentricity:    0.0013896
Arg of perigee:   201.8965 deg
Mean anomaly:     158.1621 deg
Mean motion:   14.11804218 rev/day
Decay rate:      -3.07e-06 rev/day^2
Epoch rev:           34504
Checksum:              300

Satellite: OKEAN-0
Catalog number: 25860
Epoch time:      06019.54760481
Element set:     645
Inclination:      097.7415 deg
RA of node:       040.7454 deg
Eccentricity:    0.0000455
Arg of perigee:   091.0417 deg
Mean anomaly:     269.0833 deg
Mean motion:   14.73331413 rev/day
Decay rate:        3.1e-07 rev/day^2
Epoch rev:           34986
Checksum:              286

Satellite: NOAA-16
Catalog number: 26536
Epoch time:      06019.01826638
Element set:     712
Inclination:      099.0474 deg
RA of node:       344.0457 deg
Eccentricity:    0.0010488
Arg of perigee:   176.4988 deg
Mean anomaly:     183.6259 deg
Mean motion:   14.12309757 rev/day
Decay rate:       3.48e-06 rev/day^2
Epoch rev:           27452
Checksum:              331

Satellite: NOAA-17
Catalog number: 27453
Epoch time:      06019.11543947
Element set:     735
Inclination:      098.6391 deg
RA of node:       094.1240 deg
Eccentricity:    0.0012259
Arg of perigee:   146.1263 deg
Mean anomaly:     214.0718 deg
Mean motion:   14.23742774 rev/day
Decay rate:        4.3e-07 rev/day^2
Epoch rev:           18556
Checksum:              299

Satellite: NOAA-18
Catalog number: 28654
Epoch time:      06019.28772187
Element set:     326
Inclination:      098.7738 deg
RA of node:       325.8805 deg
Eccentricity:    0.0013637
Arg of perigee:   284.9226 deg
Mean anomaly:     075.0440 deg
Mean motion:   14.10921370 rev/day
Decay rate:       -7.4e-07 rev/day^2
Epoch rev:            3438
Checksum:              318

/EX
SB KEPS @ AMSAT  $ORB06019.M
Orbital Elements  06019.MISC

HR AMSAT ORBITAL ELEMENTS FOR MANNED AND MISCELLANEOUS SATELLITES
FROM WA5QGD FORT WORTH,TX January 19, 2006
Send SUBSCRIBE KEPS/UNSUBSCRIBE KEPS to majordomo@amsat.org only
BID: ORB06019.M
TO ALL RADIO AMATEURS BT

Satellite: HUBBLE
Catalog number: 20580
Epoch time:      06019.85376089
Element set:     528
Inclination:      028.4690 deg
RA of node:       296.7917 deg
Eccentricity:    0.0003374
Arg of perigee:   054.7490 deg
Mean anomaly:     305.3411 deg
Mean motion:   14.99949434 rev/day
Decay rate:       5.15e-06 rev/day^2
Epoch rev:           66280
Checksum:              323

Satellite: UARS
Catalog number: 21701
Epoch time:      06018.82986985
Element set:    0667
Inclination:      056.9781 deg
RA of node:       015.3121 deg
Eccentricity:    0.0102579
Arg of perigee:   283.8365 deg
Mean anomaly:     075.1326 deg
Mean motion:   15.41849934 rev/day
Decay rate:      5.704e-05 rev/day^2
Epoch rev:           78625
Checksum:              332

